Other Public Products
Issued by NWS Charleston, SC

Current Version | Previous Version | Graphics & Text | Print | Product List | Glossary On
Versions: 1 2 3 4 5 6 7 8 9 10 11 12 13 14 15 16 17 18 19 20 21 22 23 24 25 26 27 28 29 30 31 32 33 34 35 36 37 38 39 40 41 42 43 44 45 46 47 48 49 50
000 FPUS82 KCHS 240312 OPUCHS TEST...KCHS/KSAV Gateway Observations...TEST National Weather Service Charleston SC 1100 PM EDT MON APR 23 2018 NOTE: "fair" indicates few or no clouds below 12,000 feet with no significant weather and/or obstructions to visibility. SCZ050-WAZ558-NCZ071-TXZ119-213-PAZ071-DCZ001-FLZ074-172-MI076- NYZ176-178-MAZ016-IL014-TNZ027-NJZ106-GAZ044-MD014-240400- ...Gateway Observations for Charleston International... CITY SKY/WX TMP DP RH WIND PRES REMARKS Chas Airport CLOUDY 67 65 93 SE15 29.97F Seattle PTCLDY 64 34 32 N18 30.20F Charlotte LGT RAIN 57 56 96 E12G20 30.08F FOG Dallas DFW CLEAR 68 51 54 CALM 30.01R Dallas Love PTCLDY 66 53 63 CALM 30.02R Philladelphia MOCLDY 52 27 38 SE5 30.42F Wash National MOCLDY 56 33 42 S6 30.39S Baltimore MOCLDY 53 29 39 CALM 30.38S Miami FAIR 76 74 93 S3 30.02R Detroit CLOUDY 55 42 61 S5 30.18F Newark MOCLDY 50 43 77 E3 30.44S Laguardia MOCLDY 51 40 65 S7 30.44S J F K MOCLDY 46 43 89 SE6 30.46S Boston Logan FAIR 48 22 35 S10 30.44S Ft. Lauderdale FAIR 78 75 90 S7 30.00S Chicago O`Hare CLOUDY 50 29 44 N10 30.11F Chicago Midway CLOUDY 51 31 46 NE6 30.11F Houston Bush FAIR 64 55 72 CALM 30.02R Houston Hobby FAIR 71 52 50 N5 30.02R Nashville CLOUDY 59 55 87 CALM 29.92S Atlanta TSTM 62 62 100 E18 29.88R FOG $$ GAZ044-118-TXZ119-213-NCZ071-DCZ001-MDZ014-506-PAZ021-071-NJZ106- NYZ176-178-MAZ106-OHZ011-021-055-MIZ076-KYZ091-ILZ014-INZ047- MNZ060-ONZ431-240400- ...Gateway Observations for Savannah International... CITY SKY/WX TMP DP RH WIND PRES REMARKS Savannah Arpt CLOUDY 70 68 93 E8 29.92F Atlanta TSTM 62 62 100 E18 29.88R FOG Charlotte LGT RAIN 57 56 96 E12G20 30.08F FOG Dallas DFW CLEAR 68 51 54 CALM 30.01R Houston Bush FAIR 64 55 72 CALM 30.02R Wash National MOCLDY 56 33 42 S6 30.39S Wash Dulles CLOUDY 56 28 34 SE8 30.36F Baltimore MOCLDY 53 29 39 CALM 30.38S Philadelphia MOCLDY 52 27 38 SE5 30.42F Newark MOCLDY 50 43 77 E3 30.44S Laguardia MOCLDY 51 40 65 S7 30.44S J F K MOCLDY 46 43 89 SE6 30.46S Boston FAIR 48 22 35 S10 30.44S Pittsburg LGT RAIN 62 41 46 SE12 30.21S Akron CLOUDY 56 40 55 S5 30.20F Cleveland CLOUDY 55 47 74 S3 30.22R Cincinnati CLOUDY 53 49 86 E10 30.04F Columbus CLOUDY 52 48 86 E7 30.14F Detroit CLOUDY 55 42 61 S5 30.18F Chicago O`Hare CLOUDY 50 29 44 N10 30.11F Minneapolis FAIR 60 40 47 W5 30.13R Indianapolis CLOUDY 54 50 86 E14 30.04S Toronto Canada CLOUDY 54 19 26 NE3 30.20F $$

USA.gov is the U.S. government's official web portal to all federal, state and local government web resources and services.